Location: Danville Conservation Area
(38.8674°N, 91.5143°W)
Time: 10:59:12
(UTC-06:00)

ISS - Visible Passes

Search period start: 03 December 2021 00:00
Search period end: 13 December 2021 00:00
Orbit: 417 x 423 km, 51.6° (Epoch: 03 December)

Date Brightness Start Highest point End Pass type
(mag) Time Alt. Az. Time Alt. Az. Time Alt. Az.
03 Dec -2.1 17:59:34 10° NNW 18:02:08 19° NNE 18:02:08 19° NNE visible
04 Dec -1.8 17:12:35 10° NNW 17:14:40 15° NNE 17:16:45 10° ENE visible
04 Dec -1.8 18:48:37 10° NW 18:50:11 25° NW 18:50:11 25° NW visible
05 Dec -3.3 18:01:29 10° NW 18:04:43 41° NNE 18:05:26 35° ENE visible
06 Dec -2.6 17:14:24 10° NNW 17:17:22 27° NNE 17:20:19 10° E visible
06 Dec -2.2 18:51:05 10° WNW 18:54:00 35° SW 18:54:00 35° SW visible
07 Dec -3.4 18:03:41 10° WNW 18:07:04 66° SW 18:09:56 13° SE visible
08 Dec -3.8 17:16:26 10° NW 17:19:50 71° NE 17:23:12 10° ESE visible
08 Dec -0.5 18:55:00 10° WSW 18:56:14 12° SW 18:57:27 10° SSW visible
09 Dec -0.9 18:06:36 10° W 18:09:10 20° SW 18:11:43 10° S visible
10 Dec -1.8 17:18:55 10° WNW 17:22:03 35° SW 17:25:09 10° SSE visible
12 Dec 0.0 17:22:56 10° WSW 17:24:02 11° SW 17:25:08 10° SSW visible
